<?xml version="1.0" encoding="UTF-8" standalone="no" ?>
<gpx xmlns="http://www.topografix.com/GPX/1/1" xmlns:xsi="http://www.w3.org/2001/XMLSchema-instance" xsi:schemaLocation="http://www.topografix.com/GPX/1/1 http://www.topografix.com/GPX/1/1/gpx.xsd" version="1.1" creator="VisuGPX - https://www.visugpx.com">
  <metadata>
    <name>Aigoual - Saint Guilhem (jour 3)</name>
    <desc><![CDATA[Randonnée sportive réalisée avec mon frère Sylvain... été 2009 (hamac, sac 15kg)]]></desc>
  </metadata>
  <trk>
    <name><![CDATA[ACTIVE LOG072002]]></name>
    <trkseg>
      <trkpt lat="43.80363" lon="3.53257">
        <ele>589.2</ele>
        <time>2009-08-04T05:20:02Z</time>
      </trkpt>
      <trkpt lat="43.80361" lon="3.53256">
        <ele>589.2</ele>
        <time>2009-08-04T05:20:04Z</time>
      </trkpt>
      <trkpt lat="43.80352" lon="3.53248">
        <ele>589.3</ele>
        <time>2009-08-04T05:20:15Z</time>
      </trkpt>
      <trkpt lat="43.80348" lon="3.53244">
        <ele>589.4</ele>
        <time>2009-08-04T05:20:20Z</time>
      </trkpt>
      <trkpt lat="43.80336" lon="3.53234">
        <ele>589.9</ele>
        <time>2009-08-04T05:20:33Z</time>
      </trkpt>
      <trkpt lat="43.80317" lon="3.53219">
        <ele>591.1</ele>
        <time>2009-08-04T05:20:55Z</time>
      </trkpt>
      <trkpt lat="43.80313" lon="3.53213">
        <ele>591.4</ele>
        <time>2009-08-04T05:21:18Z</time>
      </trkpt>
      <trkpt lat="43.80311" lon="3.53205">
        <ele>591.4</ele>
        <time>2009-08-04T05:21:24Z</time>
      </trkpt>
      <trkpt lat="43.80305" lon="3.53171">
        <ele>591.4</ele>
        <time>2009-08-04T05:21:46Z</time>
      </trkpt>
      <trkpt lat="43.803" lon="3.53138">
        <ele>591.8</ele>
        <time>2009-08-04T05:22:09Z</time>
      </trkpt>
      <trkpt lat="43.80287" lon="3.5312">
        <ele>592.5</ele>
        <time>2009-08-04T05:22:28Z</time>
      </trkpt>
      <trkpt lat="43.80266" lon="3.53133">
        <ele>593.6</ele>
        <time>2009-08-04T05:22:50Z</time>
      </trkpt>
      <trkpt lat="43.80249" lon="3.53135">
        <ele>594.5</ele>
        <time>2009-08-04T05:23:05Z</time>
      </trkpt>
      <trkpt lat="43.80224" lon="3.53126">
        <ele>595.9</ele>
        <time>2009-08-04T05:23:27Z</time>
      </trkpt>
      <trkpt lat="43.80215" lon="3.53113">
        <ele>596.3</ele>
        <time>2009-08-04T05:23:44Z</time>
      </trkpt>
      <trkpt lat="43.80208" lon="3.53085">
        <ele>596.5</ele>
        <time>2009-08-04T05:24:04Z</time>
      </trkpt>
      <trkpt lat="43.80205" lon="3.53052">
        <ele>596.8</ele>
        <time>2009-08-04T05:24:24Z</time>
      </trkpt>
      <trkpt lat="43.80203" lon="3.53036">
        <ele>597</ele>
        <time>2009-08-04T05:24:34Z</time>
      </trkpt>
      <trkpt lat="43.80203" lon="3.53008">
        <ele>597.1</ele>
        <time>2009-08-04T05:24:52Z</time>
      </trkpt>
      <trkpt lat="43.80203" lon="3.52987">
        <ele>597.4</ele>
        <time>2009-08-04T05:25:05Z</time>
      </trkpt>
      <trkpt lat="43.80204" lon="3.52952">
        <ele>598</ele>
        <time>2009-08-04T05:25:27Z</time>
      </trkpt>
      <trkpt lat="43.80203" lon="3.52945">
        <ele>598.2</ele>
        <time>2009-08-04T05:25:41Z</time>
      </trkpt>
      <trkpt lat="43.802" lon="3.52916">
        <ele>598.8</ele>
        <time>2009-08-04T05:26:00Z</time>
      </trkpt>
      <trkpt lat="43.80184" lon="3.52894">
        <ele>599.3</ele>
        <time>2009-08-04T05:26:19Z</time>
      </trkpt>
      <trkpt lat="43.80168" lon="3.52878">
        <ele>599.5</ele>
        <time>2009-08-04T05:26:36Z</time>
      </trkpt>
      <trkpt lat="43.80147" lon="3.52871">
        <ele>599.8</ele>
        <time>2009-08-04T05:26:55Z</time>
      </trkpt>
      <trkpt lat="43.80121" lon="3.52859">
        <ele>600</ele>
        <time>2009-08-04T05:27:18Z</time>
      </trkpt>
      <trkpt lat="43.80099" lon="3.52846">
        <ele>600.1</ele>
        <time>2009-08-04T05:27:40Z</time>
      </trkpt>
      <trkpt lat="43.8009" lon="3.52842">
        <ele>600.1</ele>
        <time>2009-08-04T05:27:58Z</time>
      </trkpt>
      <trkpt lat="43.8009" lon="3.52842">
        <ele>600.1</ele>
        <time>2009-08-04T05:28:22Z</time>
      </trkpt>
      <trkpt lat="43.80087" lon="3.52838">
        <ele>600.1</ele>
        <time>2009-08-04T05:28:37Z</time>
      </trkpt>
      <trkpt lat="43.80085" lon="3.52834">
        <ele>600</ele>
        <time>2009-08-04T05:28:40Z</time>
      </trkpt>
      <trkpt lat="43.80079" lon="3.52822">
        <ele>599.8</ele>
        <time>2009-08-04T05:28:51Z</time>
      </trkpt>
      <trkpt lat="43.80074" lon="3.52791">
        <ele>599.1</ele>
        <time>2009-08-04T05:29:14Z</time>
      </trkpt>
      <trkpt lat="43.80055" lon="3.5277">
        <ele>599.1</ele>
        <time>2009-08-04T05:29:36Z</time>
      </trkpt>
      <trkpt lat="43.8005" lon="3.52749">
        <ele>598.8</ele>
        <time>2009-08-04T05:29:56Z</time>
      </trkpt>
      <trkpt lat="43.80044" lon="3.52726">
        <ele>598.2</ele>
        <time>2009-08-04T05:30:17Z</time>
      </trkpt>
      <trkpt lat="43.80036" lon="3.52707">
        <ele>597.8</ele>
        <time>2009-08-04T05:30:37Z</time>
      </trkpt>
      <trkpt lat="43.80029" lon="3.5269">
        <ele>597.4</ele>
        <time>2009-08-04T05:30:52Z</time>
      </trkpt>
      <trkpt lat="43.80027" lon="3.52685">
        <ele>597.3</ele>
        <time>2009-08-04T05:31:11Z</time>
      </trkpt>
      <trkpt lat="43.80025" lon="3.52663">
        <ele>596.6</ele>
        <time>2009-08-04T05:31:31Z</time>
      </trkpt>
      <trkpt lat="43.80023" lon="3.52654">
        <ele>596.3</ele>
        <time>2009-08-04T05:31:44Z</time>
      </trkpt>
      <trkpt lat="43.8002" lon="3.52627">
        <ele>595.3</ele>
        <time>2009-08-04T05:32:02Z</time>
      </trkpt>
      <trkpt lat="43.80014" lon="3.52604">
        <ele>594.6</ele>
        <time>2009-08-04T05:32:19Z</time>
      </trkpt>
      <trkpt lat="43.79997" lon="3.52578">
        <ele>594</ele>
        <time>2009-08-04T05:32:42Z</time>
      </trkpt>
      <trkpt lat="43.79977" lon="3.52567">
        <ele>594.1</ele>
        <time>2009-08-04T05:33:03Z</time>
      </trkpt>
      <trkpt lat="43.79976" lon="3.52565">
        <ele>594.1</ele>
        <time>2009-08-04T05:33:05Z</time>
      </trkpt>
      <trkpt lat="43.79958" lon="3.52563">
        <ele>594.2</ele>
        <time>2009-08-04T05:33:24Z</time>
      </trkpt>
      <trkpt lat="43.79934" lon="3.52561">
        <ele>594.4</ele>
        <time>2009-08-04T05:33:46Z</time>
      </trkpt>
      <trkpt lat="43.79914" lon="3.52563">
        <ele>594.8</ele>
        <time>2009-08-04T05:34:07Z</time>
      </trkpt>
      <trkpt lat="43.79896" lon="3.52557">
        <ele>596.5</ele>
        <time>2009-08-04T05:34:23Z</time>
      </trkpt>
      <trkpt lat="43.79867" lon="3.52551">
        <ele>599</ele>
        <time>2009-08-04T05:34:48Z</time>
      </trkpt>
      <trkpt lat="43.7985" lon="3.5254">
        <ele>600.2</ele>
        <time>2009-08-04T05:35:07Z</time>
      </trkpt>
      <trkpt lat="43.79829" lon="3.5253">
        <ele>601.3</ele>
        <time>2009-08-04T05:35:29Z</time>
      </trkpt>
      <trkpt lat="43.79827" lon="3.52528">
        <ele>601.3</ele>
        <time>2009-08-04T05:35:47Z</time>
      </trkpt>
      <trkpt lat="43.79825" lon="3.52528">
        <ele>601.4</ele>
        <time>2009-08-04T05:37:48Z</time>
      </trkpt>
      <trkpt lat="43.79811" lon="3.5252">
        <ele>601.8</ele>
        <time>2009-08-04T05:38:41Z</time>
      </trkpt>
      <trkpt lat="43.79796" lon="3.52504">
        <ele>601.9</ele>
        <time>2009-08-04T05:38:57Z</time>
      </trkpt>
      <trkpt lat="43.79794" lon="3.52499">
        <ele>601.9</ele>
        <time>2009-08-04T05:39:01Z</time>
      </trkpt>
      <trkpt lat="43.79778" lon="3.52484">
        <ele>602.5</ele>
        <time>2009-08-04T05:39:17Z</time>
      </trkpt>
      <trkpt lat="43.79762" lon="3.52463">
        <ele>603</ele>
        <time>2009-08-04T05:39:36Z</time>
      </trkpt>
      <trkpt lat="43.79744" lon="3.5244">
        <ele>603.7</ele>
        <time>2009-08-04T05:39:56Z</time>
      </trkpt>
      <trkpt lat="43.7973" lon="3.52421">
        <ele>604.5</ele>
        <time>2009-08-04T05:40:13Z</time>
      </trkpt>
      <trkpt lat="43.79727" lon="3.52418">
        <ele>604.7</ele>
        <time>2009-08-04T05:40:16Z</time>
      </trkpt>
      <trkpt lat="43.79721" lon="3.52417">
        <ele>605.1</ele>
        <time>2009-08-04T05:40:22Z</time>
      </trkpt>
      <trkpt lat="43.79711" lon="3.52387">
        <ele>604.6</ele>
        <time>2009-08-04T05:40:43Z</time>
      </trkpt>
      <trkpt lat="43.79694" lon="3.52386">
        <ele>605.5</ele>
        <time>2009-08-04T05:41:00Z</time>
      </trkpt>
      <trkpt lat="43.79676" lon="3.52397">
        <ele>607</ele>
        <time>2009-08-04T05:41:17Z</time>
      </trkpt>
      <trkpt lat="43.79656" lon="3.52378">
        <ele>606.4</ele>
        <time>2009-08-04T05:41:38Z</time>
      </trkpt>
      <trkpt lat="43.79635" lon="3.52361">
        <ele>605.6</ele>
        <time>2009-08-04T05:41:59Z</time>
      </trkpt>
      <trkpt lat="43.79614" lon="3.52333">
        <ele>604.3</ele>
        <time>2009-08-04T05:42:22Z</time>
      </trkpt>
      <trkpt lat="43.79591" lon="3.52314">
        <ele>604.6</ele>
        <time>2009-08-04T05:42:44Z</time>
      </trkpt>
      <trkpt lat="43.79574" lon="3.523">
        <ele>605</ele>
        <time>2009-08-04T05:43:01Z</time>
      </trkpt>
      <trkpt lat="43.7955" lon="3.52286">
        <ele>605.6</ele>
        <time>2009-08-04T05:43:24Z</time>
      </trkpt>
      <trkpt lat="43.79525" lon="3.52272">
        <ele>606</ele>
        <time>2009-08-04T05:43:46Z</time>
      </trkpt>
      <trkpt lat="43.79497" lon="3.52258">
        <ele>606.4</ele>
        <time>2009-08-04T05:44:11Z</time>
      </trkpt>
      <trkpt lat="43.79489" lon="3.52228">
        <ele>606</ele>
        <time>2009-08-04T05:44:31Z</time>
      </trkpt>
      <trkpt lat="43.79486" lon="3.52216">
        <ele>605.9</ele>
        <time>2009-08-04T05:44:40Z</time>
      </trkpt>
      <trkpt lat="43.79483" lon="3.52202">
        <ele>605.7</ele>
        <time>2009-08-04T05:44:57Z</time>
      </trkpt>
      <trkpt lat="43.79486" lon="3.52198">
        <ele>605.6</ele>
        <time>2009-08-04T05:45:10Z</time>
      </trkpt>
      <trkpt lat="43.79487" lon="3.52195">
        <ele>605.6</ele>
        <time>2009-08-04T05:45:25Z</time>
      </trkpt>
      <trkpt lat="43.79487" lon="3.52194">
        <ele>605.5</ele>
        <time>2009-08-04T05:45:37Z</time>
      </trkpt>
      <trkpt lat="43.79483" lon="3.52189">
        <ele>605.5</ele>
        <time>2009-08-04T05:45:55Z</time>
      </trkpt>
      <trkpt lat="43.79475" lon="3.52193">
        <ele>605.7</ele>
        <time>2009-08-04T05:46:05Z</time>
      </trkpt>
      <trkpt lat="43.79469" lon="3.52203">
        <ele>606</ele>
        <time>2009-08-04T05:46:14Z</time>
      </trkpt>
      <trkpt lat="43.79468" lon="3.5221">
        <ele>606.1</ele>
        <time>2009-08-04T05:46:19Z</time>
      </trkpt>
      <trkpt lat="43.79463" lon="3.52226">
        <ele>606.5</ele>
        <time>2009-08-04T05:46:37Z</time>
      </trkpt>
      <trkpt lat="43.79452" lon="3.52244">
        <ele>607</ele>
        <time>2009-08-04T05:46:54Z</time>
      </trkpt>
      <trkpt lat="43.79446" lon="3.52252">
        <ele>607.4</ele>
        <time>2009-08-04T05:47:09Z</time>
      </trkpt>
      <trkpt lat="43.79445" lon="3.52252">
        <ele>607.4</ele>
        <time>2009-08-04T05:47:21Z</time>
      </trkpt>
      <trkpt lat="43.79447" lon="3.52254">
        <ele>607.5</ele>
        <time>2009-08-04T05:47:40Z</time>
      </trkpt>
      <trkpt lat="43.79446" lon="3.52255">
        <ele>607.5</ele>
        <time>2009-08-04T05:47:57Z</time>
      </trkpt>
      <trkpt lat="43.79446" lon="3.52255">
        <ele>607.6</ele>
        <time>2009-08-04T05:48:09Z</time>
      </trkpt>
      <trkpt lat="43.79443" lon="3.52265">
        <ele>608.1</ele>
        <time>2009-08-04T05:48:23Z</time>
      </trkpt>
      <trkpt lat="43.79442" lon="3.52269">
        <ele>608.4</ele>
        <time>2009-08-04T05:48:38Z</time>
      </trkpt>
      <trkpt lat="43.73921" lon="3.54661">
        <ele>217.8</ele>
        <time>2009-08-04T11:08:34Z</time>
      </trkpt>
      <trkpt lat="43.7393" lon="3.54683">
        <ele>219.1</ele>
        <time>2009-08-04T11:08:45Z</time>
      </trkpt>
      <trkpt lat="43.73929" lon="3.54681">
        <ele>219.1</ele>
        <time>2009-08-04T11:08:52Z</time>
      </trkpt>
      <trkpt lat="43.73929" lon="3.54681">
        <ele>219.1</ele>
        <time>2009-08-04T11:08:54Z</time>
      </trkpt>
    </trkseg>
  </trk>
</gpx>